Stations météo

Publicité
Toulouse/Blagnac, France (7630): Température de l'air & dewpoint: 12.11.2019 12:00:00 - 18.11.2019 12:00:00 (CET)Toulouse/Blagnac, France (7630): Température de l'air 5cm: 12.11.2019 12:00:00 - 18.11.2019 12:00:00 (CET)Toulouse/Blagnac, France (7630): Température de l'air -20cm & Température de l'air -100cm: 12.11.2019 12:00:00 - 18.11.2019 12:00:00 (CET)Toulouse/Blagnac, France (7630): Vitesse du vent & gusts: 12.11.2019 12:00:00 - 18.11.2019 12:00:00 (CET)Toulouse/Blagnac, France (7630): Direction du vent: 12.11.2019 12:00:00 - 18.11.2019 12:00:00 (CET)Toulouse/Blagnac, France (7630): reduced air pressure: 12.11.2019 12:00:00 - 18.11.2019 12:00:00 (CET)Toulouse/Blagnac, France (7630): visibility: 12.11.2019 12:00:00 - 18.11.2019 12:00:00 (CET)Toulouse/Blagnac, France (7630): Ensoleillement: 12.11.2019 12:00:00 - 18.11.2019 12:00:00 (CET)Toulouse/Blagnac, France (7630): Quantités de précipitations: 12.11.2019 12:00:00 - 18.11.2019 12:00:00 (CET)
Date & Time tt [°C] td [°C] tt 5cm [°C] tt -20cm [°C] tt -100cm [°C] ff [km/h] ff [knt] fx [km/h] fx [knt] dd ppp [hPa] vv [km] sd [min] rr [mm]
18.11.2019 12:00:00 6,9 3,9 8,4 9,3 13,5 19 11 31 17 WNW 1016,1 35 22 0,0
18.11.2019 11:00:00 6,5 4,3 6,4 9,3 13,5 16 8 26 14 W 1015,8 20 3 0,0
18.11.2019 10:00:00 5,6 3,8 4,5 9,4 13,5 16 9 23 12 W 1015,3 41 0 0,0
18.11.2019 09:00:00 4,3 2,8 3,6 9,4 13,5 14 7 24 13 NW 1014,4 40 0 0,0
18.11.2019 08:00:00 4,6 3,3 4,3 9,5 13,6 23 12 28 15 NW 1013,3 22 0 0,0
18.11.2019 07:00:00 5,1 4,1 4,7 9,5 13,6 18 10 26 14 NW 1012,4 14 0 0,0
18.11.2019 06:00:00 5,3 4,9 5,1 9,5 13,6 13 7 23 13 N 1011,3 7 0 0,2
18.11.2019 05:00:00 5,7 5,3 5,5 9,5 13,6 11 6 19 10 N 1010,6 6 0 0,0
18.11.2019 04:00:00 6,0 5,6 5,8 9,6 13,6 11 6 16 9 N 1009,9 5 0 0,0
18.11.2019 03:00:00 6,5 6,1 6,4 9,6 13,6 7 4 11 6 NNE 1009,4 4,8 0 0,0
18.11.2019 02:00:00 7,0 6,6 6,6 9,6 13,6 6 4 11 6 ENE 1008,9 4,2 0 0,2
18.11.2019 01:00:00 7,0 6,4 6,6 9,6 13,6 8 4 15 8 ENE 1009,0 3,0 0 0,6
18.11.2019 00:00:00 7,4 7,0 7,0 9,6 13,6 8 4 10 6 NE 1008,8 4,5 0 0,8
17.11.2019 23:00:00 7,5 6,8 7,0 9,6 13,6 5 3 10 6 E 1008,7 4,5 0 0,4
17.11.2019 22:00:00 7,7 6,6 6,9 9,6 13,7 6 4 14 8 E 1008,7 7 0 0,6
17.11.2019 21:00:00 7,8 6,3 6,8 9,6 13,6 8 4 13 7 ESE 1008,6 10 0 0,6
17.11.2019 20:00:00 8,1 6,2 6,9 9,6 13,7 6 3 11 6 E 1008,5 12 0 0,0
17.11.2019 19:00:00 8,6 6,0 7,9 9,6 13,7 7 4 13 7 NE 1008,4 17 0 0,0
17.11.2019 18:00:00 8,8 5,9 7,7 9,5 13,7 7 4 10 6 ENE 1008,3 29 0 0,0
17.11.2019 17:00:00 9,2 5,6 8,7 9,4 13,7 4 2 10 6 NE 1008,0 53 0 0,0
17.11.2019 16:00:00 9,7 5,9 10,9 9,3 13,7 6 4 14 8 N 1008,1 56 1 0,0
17.11.2019 15:00:00 9,9 5,7 10,5 9,2 13,7 9 5 17 9 NW 1008,4 49 0 0,0
17.11.2019 14:00:00 9,9 5,5 11,3 9,0 13,7 12 6 19 10 NW 1008,6 54 1 0,0
17.11.2019 13:00:00 9,3 6,2 11,5 8,9 13,7 4 2 11 6 W 1008,9 58 0 0,0
17.11.2019 12:00:00 8,6 6,0 9,7 8,9 13,8 4 2 12 6 NNW 1009,7 56 0 0,0
17.11.2019 11:00:00 7,8 5,8 8,0 8,8 13,7 9 5 16 9 WNW 1009,9 59 0 0,0
17.11.2019 10:00:00 7,4 5,7 7,5 8,9 13,8 13 7 24 13 NNW 1009,9 51 5 0,0
17.11.2019 09:00:00 7,1 5,9 6,0 8,8 13,8 13 7 25 14 WNW 1010,0 60 0 0,0
17.11.2019 08:00:00 6,2 5,5 4,7 8,9 13,8 11 6 18 10 NW 1009,8 60 0 0,0
17.11.2019 07:00:00 5,8 4,8 4,5 8,9 13,8 11 6 21 11 WNW 1009,8 60 0 0,0
17.11.2019 06:00:00 6,0 4,6 4,8 8,9 13,8 15 8 26 14 W 1009,8 60 0 0,0
17.11.2019 05:00:00 6,4 4,9 5,6 9,0 13,8 16 9 37 20 W 1009,7 60 0 0,0
17.11.2019 04:00:00 6,5 4,8 5,4 9,0 13,8 25 14 39 21 WSW 1009,7 60 0 0,0
17.11.2019 03:00:00 6,5 4,7 5,7 9,0 13,8 27 15 47 25 W 1010,0 60 0 0,0
17.11.2019 02:00:00 6,5 4,5 5,7 9,1 13,9 28 15 44 24 W 1010,2 60 0 0,0
17.11.2019 01:00:00 6,6 4,8 5,8 9,1 13,9 28 15 44 24 W 1010,6 60 0 0,0
17.11.2019 00:00:00 6,5 4,5 5,2 9,1 13,9 22 12 36 20 WSW 1010,8 60 0 0,0
16.11.2019 23:00:00 6,2 4,4 5,3 9,2 13,9 26 14 52 28 WSW 1010,9 60 0 0,2
16.11.2019 22:00:00 6,7 4,5 5,5 9,2 13,9 34 19 56 31 W 1010,6 53 0 0,0
16.11.2019 21:00:00 6,5 4,7 5,5 9,2 13,9 34 18 54 29 WSW 1010,3 60 0 0,0
16.11.2019 20:00:00 6,4 4,4 5,5 9,2 13,9 20 11 42 23 SW 1010,6 60 0 0,0
16.11.2019 19:00:00 6,4 4,6 5,1 9,3 14,0 23 12 42 23 SW 1010,7 20 0 0,0
16.11.2019 18:00:00 6,2 4,5 5,1 9,3 14,0 23 13 45 25 SW 1010,6 57 0 0,2
16.11.2019 17:00:00 6,5 4,8 5,7 9,2 14,0 23 12 44 24 SW 1010,6 29 0 0,0
16.11.2019 16:00:00 6,9 5,5 6,2 9,1 14,0 15 8 32 17 SSW 1010,0 29 0 1,0
16.11.2019 15:00:00 7,3 4,8 6,6 9,1 14,0 16 8 34 19 SW 1009,9 12 0 0,2
16.11.2019 14:00:00 8,6 3,4 8,0 8,9 14,0 21 11 33 18 W 1009,7 28 0 0,0
16.11.2019 13:00:00 10,4 2,7 11,5 8,9 14,0 14 7 30 16 SSW 1009,3 52 37 0,0
16.11.2019 12:00:00 8,9 4,1 8,5 8,8 14,1 12 6 19 11 SSE 1010,0 41 19 0,0
16.11.2019 11:00:00 6,5 3,3 8,2 8,8 14,1 12 7 20 11 S 1010,6 50 14 0,0
16.11.2019 10:00:00 5,0 3,2 4,4 8,8 14,1 13 7 23 12 S 1010,7 40 27 0,0
16.11.2019 09:00:00 3,9 2,4 2,3 8,9 14,1 12 7 23 12 S 1010,9 36 29 0,0
16.11.2019 08:00:00 2,9 2,0 1,2 9,0 14,1 13 7 18 10 S 1010,5 25 0 0,0
16.11.2019 07:00:00 2,7 2,0 1,6 9,0 14,1 13 7 19 10 S 1009,9 36 0 0,0
16.11.2019 06:00:00 3,1 2,7 0,8 9,1 14,2 9 5 16 8 S 1009,7 25 0 0,0
16.11.2019 05:00:00 2,2 1,8 -0,4 9,2 14,1 10 6 14 8 SSW 1009,6 19 0 0,0
16.11.2019 04:00:00 3,5 2,8 1,6 9,2 14,1 11 6 16 8 SW 1009,4 24 0 0,0
16.11.2019 03:00:00 3,9 3,0 2,5 9,3 14,2 7 4 14 8 SSW 1009,1 33 0 0,0
16.11.2019 02:00:00 4,6 3,7 3,1 9,3 14,2 11 6 16 9 SW 1008,5 31 0 0,0
16.11.2019 01:00:00 4,7 4,0 1,4 9,4 14,2 12 7 18 10 W 1008,2 42 0 0,0
16.11.2019 00:00:00 4,3 3,4 2,8 9,4 14,2 9 5 20 11 W 1007,8 39 0 0,0
15.11.2019 23:00:00 4,7 3,8 4,3 9,5 14,2 14 7 26 14 W 1007,4 27 0 0,0
15.11.2019 22:00:00 4,7 4,0 4,4 9,5 14,2 14 7 22 12 W 1006,8 8 0 0,0
15.11.2019 21:00:00 4,8 4,4 4,6 9,5 14,2 12 7 21 12 WNW 1005,8 3,6 0 0,2
15.11.2019 20:00:00 4,7 4,3 4,6 9,5 14,2 14 8 23 13 NW 1004,8 13 0 0,2
15.11.2019 19:00:00 5,3 4,3 4,9 9,5 14,2 11 6 22 12 NW 1003,9 9 0 0,2
15.11.2019 18:00:00 5,6 4,4 5,0 9,5 14,3 14 8 25 13 WNW 1003,0 21 0 0,4
15.11.2019 17:00:00 6,2 5,3 5,7 9,5 14,3 10 6 31 17 N 1002,1 14 0 1,0
15.11.2019 16:00:00 6,6 5,7 6,2 9,4 14,3 22 12 32 17 WNW 1001,0 3,4 0 0,4
15.11.2019 15:00:00 7,8 5,3 8,0 9,2 14,3 22 12 31 17 NW 1000,3 29 0 0,0
15.11.2019 14:00:00 9,4 4,6 10,7 9,1 14,3 5 3 18 10 NNW 999,6 60 5 0,0
15.11.2019 13:00:00 9,7 4,9 10,9 9,0 14,3 4 2 19 11 N 999,2 39 45 0,0
15.11.2019 12:00:00 7,6 4,7 6,8 9,0 14,3 13 7 22 12 ENE 999,6 27 12 0,0
15.11.2019 11:00:00 5,2 4,2 5,3 9,0 14,3 0 0 7 4 N 1000,6 27 0 0,0
15.11.2019 10:00:00 4,0 3,1 3,7 9,0 14,3 6 3 8 5 SSE 1000,6 21 3 0,0
15.11.2019 09:00:00 2,7 2,4 0,7 9,1 14,3 4 2 10 5 SW 1000,8 23 18 0,0
15.11.2019 08:00:00 2,3 1,9 -0,9 9,2 14,4 9 5 19 10 SE 1000,4 20 0 0,0
15.11.2019 07:00:00 2,1 1,8 -1,1 9,4 14,4 6 4 9 5 ESE 1000,2 5 0 0,0
15.11.2019 06:00:00 2,2 1,9 -1,1 9,4 14,3 5 3 12 7 SE 1000,2 12 0 0,0
15.11.2019 05:00:00 2,0 1,6 -0,1 9,5 14,4 8 4 16 9 S 1000,1 17 0 0,0
15.11.2019 04:00:00 2,9 2,6 0,3 9,7 14,4 13 7 17 9 S 1000,2 17 0 0,0
15.11.2019 03:00:00 2,8 2,5 1,0 9,7 14,4 8 4 16 9 S 1000,0 12 0 0,0
15.11.2019 02:00:00 3,1 2,8 1,5 9,7 14,4 11 6 14 8 S 999,7 8 0 0,0
15.11.2019 01:00:00 3,2 3,1 -0,1 9,9 14,4 8 5 11 6 SSE 999,8 6 0 0,0
15.11.2019 00:00:00 3,0 2,6 0,2 10,0 14,4 7 4 11 6 S 999,5 3,6 0 0,0
14.11.2019 23:00:00 3,7 3,1 1,0 10,0 14,4 8 5 17 9 SSW 999,4 6 0 0,0
14.11.2019 22:00:00 4,9 4,0 3,5 10,1 14,4 11 6 19 10 SW 999,2 10 0 0,2
14.11.2019 21:00:00 5,6 4,9 2,8 10,1 14,4 7 4 15 8 S 998,9 9 0 0,0
14.11.2019 20:00:00 4,6 3,9 2,0 10,2 14,5 5 3 14 7 S 998,9 7 0 0,0
14.11.2019 19:00:00 5,2 4,0 1,8 10,2 14,5 8 5 18 10 S 998,9 33 0 0,0
14.11.2019 18:00:00 5,5 4,3 3,4 10,2 14,4 8 5 21 11 S 998,7 55 0 0,2
14.11.2019 17:00:00 6,9 4,0 5,5 10,2 14,5 6 4 18 10 SW 998,4 32 0 0,0
14.11.2019 16:00:00 7,7 4,1 7,8 10,1 14,5 9 5 28 15 SSW 998,8 60 18 0,0
14.11.2019 15:00:00 7,4 3,6 7,6 10,1 14,5 16 8 26 14 SSW 998,8 56 0 0,0
14.11.2019 14:00:00 6,6 4,8 6,8 10,0 14,5 13 7 20 11 S 998,7 60 0 0,0
14.11.2019 13:00:00 5,9 4,2 5,9 10,1 14,5 10 5 17 9 SSW 1000,0 59 0 0,0
14.11.2019 12:00:00 5,4 3,9 5,5 10,1 14,5 8 4 17 9 S 1001,5 27 0 0,0
14.11.2019 11:00:00 4,9 3,6 4,7 10,1 14,5 10 6 29 15 SW 1002,3 59 0 0,0
14.11.2019 10:00:00 4,7 3,4 4,6 10,2 14,5 20 11 31 17 SSW 1002,4 60 0 0,0
14.11.2019 09:00:00 5,2 4,0 4,6 10,3 14,6 16 9 40 21 S 1002,6 60 0 1,0
14.11.2019 08:00:00 5,8 4,1 5,0 10,3 14,5 22 12 35 19 W 1003,5 11 0 1,4
14.11.2019 07:00:00 6,4 5,3 5,7 10,4 14,5 15 8 21 12 W 1003,1 15 0 1,5
14.11.2019 06:00:00 6,5 5,3 5,9 10,4 14,5 14 8 31 17 W 1002,9 7 0 2,8
14.11.2019 05:00:00 7,0 5,9 5,6 10,5 14,5 12 6 34 18 W 1003,1 3,9 0 2,8
14.11.2019 04:00:00 6,5 4,7 5,6 10,5 14,6 24 13 43 23 W 1002,5 15 0 0,0
14.11.2019 03:00:00 6,6 4,3 5,3 10,6 14,6 22 12 32 17 SE 1001,1 60 0 0,2
14.11.2019 02:00:00 6,3 5,1 4,4 10,6 14,6 4 2 14 8 ESE 1003,0 9 0 0,8
14.11.2019 01:00:00 6,0 4,8 4,6 10,7 14,6 9 5 16 9 SSE 1003,2 41 0 0,0
14.11.2019 00:00:00 6,7 5,0 4,4 10,8 14,6 12 7 16 9 SE 1004,3 18 0 0,0
13.11.2019 23:00:00 5,9 4,4 2,5 10,9 14,6 10 6 15 8 SE 1005,6 21 0 0,0
13.11.2019 22:00:00 5,5 3,7 1,9 11,0 14,6 10 5 14 8 SSE 1007,2 17 0 0,0
13.11.2019 21:00:00 5,9 4,2 1,7 11,1 14,6 10 5 14 8 S 1008,8 12 0 0,0
13.11.2019 20:00:00 7,5 4,4 2,9 11,1 14,6 5 3 14 8 SSW 1009,4 23 0 0,0
13.11.2019 19:00:00 8,3 3,9 5,4 11,2 14,6 9 5 16 9 W 1010,0 49 0 0,0
13.11.2019 18:00:00 9,4 4,4 7,3 11,2 14,7 10 5 19 11 WNW 1010,5 58 6 0,0
13.11.2019 17:00:00 10,6 3,8 9,7 11,1 14,6 10 5 24 13 NW 1010,3 60 9 0,0
13.11.2019 16:00:00 11,1 3,1 10,4 11,1 14,7 18 10 38 21 WNW 1010,6 43 13 0,0
13.11.2019 15:00:00 11,6 1,8 11,8 11,0 14,7 22 12 39 21 WNW 1010,2 37 51 0,0
13.11.2019 14:00:00 11,1 5,0 10,9 10,9 14,7 28 15 41 22 W 1010,3 39 12 0,0
13.11.2019 13:00:00 11,3 5,0 12,3 10,9 14,7 26 14 38 20 WNW 1010,2 38 43 0,0
13.11.2019 12:00:00 10,1 7,3 10,2 10,8 14,7 17 9 27 15 NW 1010,4 40 8 0,0
13.11.2019 11:00:00 10,2 7,8 10,6 10,8 14,7 18 10 27 14 WNW 1010,1 45 6 0,0
13.11.2019 10:00:00 9,1 8,2 8,8 10,8 14,7 12 6 16 9 WNW 1009,2 31 2 0,0
13.11.2019 09:00:00 8,4 7,8 8,0 10,8 14,7 11 6 18 10 NW 1008,9 19 0 0,0
13.11.2019 08:00:00 8,4 7,8 8,0 10,8 14,8 12 6 19 11 NW 1008,2 24 0 0,0
13.11.2019 07:00:00 8,6 8,0 7,9 10,8 14,7 11 6 19 10 WNW 1007,5 27 0 0,0
13.11.2019 06:00:00 8,4 8,0 7,6 10,8 14,7 6 3 8 4 SSW 1006,7 31 0 0,0
13.11.2019 05:00:00 8,6 8,0 7,9 10,9 14,8 4 2 8 4 NNW 1006,6 25 0 0,0
13.11.2019 04:00:00 8,6 7,8 7,6 10,9 14,8 6 3 9 5 NNW 1006,4 42 0 0,0
13.11.2019 03:00:00 8,4 7,5 7,6 10,9 14,8 4 2 8 4 W 1006,5 41 0 0,0
13.11.2019 02:00:00 8,3 7,4 7,4 10,9 14,8 6 3 16 9 S 1006,1 50 0 0,2
13.11.2019 01:00:00 8,7 7,3 7,9 10,9 14,8 11 6 22 12 W 1006,9 20 0 0,0
13.11.2019 00:00:00 9,0 8,2 8,3 10,9 14,8 12 6 21 12 W 1007,3 30 0 0,6
12.11.2019 23:00:00 8,7 7,8 8,3 10,9 14,8 13 7 26 14 NW 1008,0 4,7 0 0,8
12.11.2019 22:00:00 9,1 8,2 8,5 11,0 14,9 19 10 26 14 WNW 1008,4 5 0 1,2
12.11.2019 21:00:00 9,5 8,1 8,5 11,0 14,9 15 8 31 17 WSW 1008,3 38 0 0,0
12.11.2019 20:00:00 9,5 8,1 8,1 11,0 14,9 18 10 33 18 W 1008,5 60 0 0,0
12.11.2019 19:00:00 9,8 8,1 8,7 10,9 14,9 21 11 31 17 W 1008,9 57 0 0,0
12.11.2019 18:00:00 10,4 7,8 9,2 10,9 14,9 19 11 37 20 W 1009,2 19 0 0,0
12.11.2019 17:00:00 11,3 7,6 10,9 10,8 14,9 25 13 38 21 W 1009,2 54 6 0,0
12.11.2019 16:00:00 12,7 6,5 12,9 10,7 14,9 26 14 44 24 W 1009,5 31 43 0,0
12.11.2019 15:00:00 12,9 7,6 12,1 10,6 14,9 25 13 40 22 W 1010,1 43 8 0,0
12.11.2019 14:00:00 12,3 7,4 13,1 10,5 15,0 25 14 37 20 W 1010,9 48 36 0,0
12.11.2019 13:00:00 11,7 8,2 10,5 10,4 15,0 22 12 40 21 W 1011,7 33 1 0,0
12.11.2019 12:00:00 11,6 8,1 12,5 10,4 15,0 31 17 42 23 W 1012,6 19 43 0,0

tt = Température de l'air
td = dewpoint
tt 5cm = Température de l'air 5cm
tt -20cm = Température de l'air -20cm
tt -100cm = Température de l'air -100cm
ff = Vitesse du vent
fx = gusts
dd = Direction du vent
ppp = reduced air pressure
vv = visibility
sd = Ensoleillement
rr = Quantités de précipitations

stations d'obs. à proximité